Change the Weather History Date:

Friday, August 23, 2013

  Actual Average Record
Temperature  
Mean Temperature 66 °F -  
Max Temperature 73 °F 77 °F 87 °F (1989)
Min Temperature 59 °F 49 °F 38 °F (1985)
Cooling Degree Days 1    
Growing Degree Days 16 (Base 50)    
Moisture  
Dew Point 54 °F    
Average Humidity 66    
Maximum Humidity 94    
Minimum Humidity 41    
Precipitation  
Precipitation 0.00 in - - ()
Sea Level Pressure  
Sea Level Pressure 30.13 in    
Wind  
Wind Speed 6 mph (NNE)    
Max Wind Speed 13 mph    
Max Gust Speed 17 mph    
Visibility 10 miles    
Events      
Averages and records for this station are not official NWS values.
T = Trace of Precipitation, MM = Missing Value Source: NWS Daily Summary

Daily Weather History Graph

Daily Weather History Graph

Search for Another Location

Airport or City:

Trip Planner

Search our weather history database for the weather conditions in past years. The results will help you decide how hot, cold, wet, or windy it might be!

Date:

Astronomy

Aug. 23, 2013 Rise Set
Actual Time 6:33 AM EDT 8:05 PM EDT
Civil Twilight 6:03 AM EDT 8:34 PM EDT
Nautical Twilight 5:28 AM EDT 9:09 PM EDT
Astronomical Twilight 4:50 AM EDT 9:47 PM EDT
Moon 9:18 PM EDT (8/23) 9:30 AM EDT (8/23)
Length of Visible Light 14h 30m
Length of Day
13h 31m
Waning Gibbous, 91% of the Moon is Illuminated
Aug 23
Waning Gibbous
Aug 28
Last Quarter
Sep 5
New
Sep 12
First Quarter
Sep 19
Full

Hourly Weather History & Observations

Time (EDT) Temp. Dew Point Humidity Pressure Visibility Wind Dir Wind Speed Gust Speed Precip Events Conditions
12:15 AM 66.2 °F 64.4 °F 94% 30.07 in 7.0 mi NNW 5.8 mph - N/A   Scattered Clouds
12:35 AM 66.2 °F 64.4 °F 94% 30.07 in 7.0 mi North 4.6 mph - N/A   Overcast
12:55 AM 66.2 °F 64.4 °F 94% 30.07 in 6.0 mi North 3.5 mph - N/A   Mostly Cloudy
1:15 AM 66.2 °F 64.4 °F 94% 30.07 in 5.0 mi North 4.6 mph - N/A   Clear
1:35 AM 66.2 °F 64.4 °F 94% 30.07 in 4.0 mi North 3.5 mph - N/A   Clear
1:55 AM 66.2 °F 62.6 °F 88% 30.07 in 9.0 mi North 5.8 mph - N/A   Clear
2:15 AM 66.2 °F 62.6 °F 88% 30.07 in 9.0 mi North 4.6 mph - N/A   Clear
2:35 AM 66.2 °F 64.4 °F 94% 30.07 in 2.0 mi North 4.6 mph - N/A   Mostly Cloudy
2:55 AM 64.4 °F 60.8 °F 88% 30.07 in 8.0 mi North 5.8 mph - N/A   Partly Cloudy
3:15 AM 64.4 °F 60.8 °F 88% 30.06 in 10.0 mi North 4.6 mph - N/A   Scattered Clouds
3:35 AM 64.4 °F 62.6 °F 94% 30.06 in 10.0 mi Calm Calm - N/A   Partly Cloudy
3:55 AM 64.4 °F 60.8 °F 88% 30.06 in 10.0 mi North 4.6 mph - N/A   Clear
4:15 AM 64.4 °F 57.2 °F 77% 30.05 in 10.0 mi North 5.8 mph - N/A   Clear
4:35 AM 64.4 °F 55.4 °F 73% 30.05 in 10.0 mi North 5.8 mph - N/A   Clear
4:55 AM 64.4 °F 55.4 °F 73% 30.06 in 10.0 mi North 8.1 mph - N/A   Clear
5:15 AM 64.4 °F 53.6 °F 68% 30.06 in 10.0 mi North 6.9 mph - N/A   Clear
5:35 AM 62.6 °F 55.4 °F 77% 30.06 in 10.0 mi North 6.9 mph - N/A   Partly Cloudy
5:55 AM 62.6 °F 55.4 °F 77% 30.07 in 10.0 mi NNW 6.9 mph - N/A   Clear
6:15 AM 62.6 °F 55.4 °F 77% 30.07 in 10.0 mi North 5.8 mph - N/A   Clear
6:35 AM 60.8 °F 55.4 °F 82% 30.08 in 9.0 mi NNW 4.6 mph - N/A   Clear
6:55 AM 60.8 °F 55.4 °F 82% 30.09 in 10.0 mi NNW 4.6 mph - N/A   Partly Cloudy
7:15 AM 60.8 °F 53.6 °F 77% 30.09 in 10.0 mi North 3.5 mph - N/A   Partly Cloudy
7:35 AM 62.6 °F 55.4 °F 77% 30.10 in 10.0 mi NE 4.6 mph - N/A   Clear
7:55 AM 62.6 °F 55.4 °F 77% 30.11 in 10.0 mi North 3.5 mph - N/A   Clear
8:15 AM 64.4 °F 53.6 °F 68% 30.11 in 10.0 mi North 4.6 mph - N/A   Clear
8:35 AM 64.4 °F 53.6 °F 68% 30.11 in 10.0 mi North 5.8 mph - N/A   Clear
8:55 AM 64.4 °F 55.4 °F 73% 30.12 in 9.0 mi NE 4.6 mph - N/A   Clear
9:15 AM 64.4 °F 55.4 °F 73% 30.12 in 10.0 mi NE 3.5 mph - N/A   Clear
9:35 AM 66.2 °F 55.4 °F 68% 30.12 in 7.0 mi NE 5.8 mph - N/A   Clear
9:55 AM 66.2 °F 57.2 °F 73% 30.13 in 10.0 mi NE 4.6 mph - N/A   Clear
10:15 AM 68.0 °F 57.2 °F 68% 30.13 in 10.0 mi East 4.6 mph - N/A   Clear
10:35 AM 69.8 °F 55.4 °F 60% 30.14 in 10.0 mi ENE 3.5 mph - N/A   Clear
10:55 AM 69.8 °F 55.4 °F 60% 30.14 in 10.0 mi NE 4.6 mph - N/A   Clear
11:15 AM 69.8 °F 53.6 °F 56% 30.14 in 10.0 mi East 5.8 mph - N/A   Clear
11:35 AM 71.6 °F 53.6 °F 53% 30.14 in 10.0 mi NNE 4.6 mph - N/A   Partly Cloudy
11:55 AM 71.6 °F 51.8 °F 50% 30.14 in 10.0 mi East 8.1 mph - N/A   Mostly Cloudy
12:15 PM 73.4 °F 53.6 °F 50% 30.14 in 10.0 mi NNE 9.2 mph - N/A   Scattered Clouds
12:35 PM 73.4 °F 51.8 °F 47% 30.14 in 10.0 mi NE 10.4 mph - N/A   Partly Cloudy
12:55 PM 73.4 °F 48.2 °F 41% 30.14 in 10.0 mi Calm Calm - N/A   Partly Cloudy
1:15 PM 73.4 °F 50.0 °F 44% 30.14 in 10.0 mi NNE 6.9 mph - N/A   Mostly Cloudy
1:35 PM 73.4 °F 51.8 °F 47% 30.14 in 10.0 mi ENE 9.2 mph - N/A   Mostly Cloudy
1:55 PM 71.6 °F 50.0 °F 46% 30.14 in 10.0 mi NNE 10.4 mph - N/A   Mostly Cloudy
2:15 PM 73.4 °F 51.8 °F 47% 30.14 in 10.0 mi North 8.1 mph - N/A   Mostly Cloudy
2:35 PM 73.4 °F 51.8 °F 47% 30.14 in 10.0 mi North 9.2 mph - N/A   Scattered Clouds
2:55 PM 73.4 °F 51.8 °F 47% 30.14 in 10.0 mi North 8.1 mph - N/A   Partly Cloudy
3:15 PM 73.4 °F 51.8 °F 47% 30.14 in 10.0 mi North 10.4 mph 16.1 mph N/A   Scattered Clouds
3:35 PM 73.4 °F 48.2 °F 41% 30.15 in 10.0 mi NNE 12.7 mph 17.3 mph N/A   Partly Cloudy
3:55 PM 73.4 °F 50.0 °F 44% 30.15 in 10.0 mi North 10.4 mph - N/A   Clear
4:15 PM 73.4 °F 48.2 °F 41% 30.14 in 10.0 mi NNE 12.7 mph 16.1 mph N/A   Clear
4:35 PM 73.4 °F 51.8 °F 47% 30.15 in 10.0 mi North 11.5 mph - N/A   Clear
4:55 PM 71.6 °F 50.0 °F 46% 30.14 in 10.0 mi NNE 8.1 mph - N/A   Clear
5:15 PM 71.6 °F 51.8 °F 50% 30.15 in 10.0 mi North 12.7 mph - N/A   Clear
5:35 PM 71.6 °F 51.8 °F 50% 30.15 in 10.0 mi North 12.7 mph - N/A   Clear
5:55 PM 71.6 °F 51.8 °F 50% 30.15 in 10.0 mi North 11.5 mph 16.1 mph N/A   Clear
6:15 PM 69.8 °F 53.6 °F 56% 30.15 in 10.0 mi North 11.5 mph - N/A   Clear
6:35 PM 69.8 °F 53.6 °F 56% 30.15 in 10.0 mi North 10.4 mph - N/A   Clear
6:55 PM 68.0 °F 51.8 °F 56% 30.16 in 10.0 mi NNE 8.1 mph - N/A   Clear
7:15 PM 66.2 °F 51.8 °F 60% 30.17 in 10.0 mi North 9.2 mph - N/A   Clear
7:35 PM 66.2 °F 51.8 °F 60% 30.17 in 10.0 mi North 6.9 mph - N/A   Clear
7:55 PM 64.4 °F 50.0 °F 59% 30.17 in 10.0 mi North 6.9 mph - N/A   Clear
8:15 PM 64.4 °F 51.8 °F 64% 30.18 in 10.0 mi North 6.9 mph - N/A   Clear
8:35 PM 62.6 °F 51.8 °F 68% 30.18 in 10.0 mi North 5.8 mph - N/A   Clear
8:55 PM 62.6 °F 50.0 °F 63% 30.19 in 10.0 mi North 6.9 mph - N/A   Clear
9:15 PM 62.6 °F 50.0 °F 63% 30.20 in 10.0 mi North 4.6 mph - N/A   Clear
9:35 PM 60.8 °F 48.2 °F 63% 30.21 in 10.0 mi North 6.9 mph - N/A   Clear
9:55 PM 60.8 °F 48.2 °F 63% 30.21 in 10.0 mi NNE 5.8 mph - N/A   Clear
10:15 PM 60.8 °F 48.2 °F 63% 30.21 in 10.0 mi NNE 4.6 mph - N/A   Clear
10:35 PM 60.8 °F 48.2 °F 63% 30.22 in 10.0 mi NNE 3.5 mph - N/A   Clear
10:55 PM 60.8 °F 48.2 °F 63% 30.22 in 10.0 mi NNE 3.5 mph - N/A   Clear
11:15 PM 59.0 °F 48.2 °F 67% 30.22 in 10.0 mi Calm Calm - N/A   Clear
11:35 PM 60.8 °F 48.2 °F 63% 30.23 in 10.0 mi Calm Calm - N/A   Clear
11:55 PM 59.0 °F 48.2 °F 67% 30.23 in 10.0 mi East 4.6 mph - N/A   Clear